CAPE
1139 1214 1369 2017 2046 2215 2419 2596 2568 2383 2241 2302 2159 2057 1921 1872 1786 1789 1838 1828 1699 1464 1574 1740 1626 1543 1559 1535 1563 1581 1674 1819 1839 1894 1690 1829 1879 1641 1688 1747 1875 1831 1812 1724 1519 1478 1608 1732 1642 955 1040 1260 1378 1423 1376 1486 1727 1580 1596 1393 1071 947 728 502 326 304 304 299 514 335 234 159 114 226 290 98 36 30 4 4 2 0 0 72 382
1235 1032 1440 1780 1950 2152 2355 2523 2425 2319 2288 2212 2213 2090 1967 1850 1900 1937 1923 1926 1680 1710 1845 1738 1603 1595 1583 1579 1533 1558 1694 1847 1951 2018 1956 1867 1789 1612 1601 1634 1951 1950 1910 1978 2050 2029 1978 1404 904 906 884 954 1247 1827 1887 1786 1563 1348 1182 898 674 728 710 613 483 502 608 482 234 71 58 166 256 202 234 34 0 2 7 5 4 0 0 42 296
989 1025 1499 1808 2060 2253 2404 2507 2441 2354 2375 2346 2216 2067 1985 1973 1990 2046 2023 1913 1867 1904 1828 1697 1604 1600 1596 1568 1563 1544 1527 1716 1937 2153 1988 1798 1606 1517 1574 1495 1723 1885 1938 2019 2072 1751 1447 1350 1204 1119 1144 1083 1059 1319 1536 1444 1238 985 835 689 572 685 611 711 761 640 441 296 225 231 330 237 156 493 524 86 16 7 7 3 1 0 0 20 212
828 954 1533 1937 2115 2186 2272 2532 2466 2467 2394 2378 2203 2109 2055 2110 2105 2089 2064 2000 1996 1872 1762 1703 1664 1633 1580 1505 1555 1571 1502 1605 1758 1869 1974 1840 1622 1489 1418 1454 1435 1378 1388 1367 1520 1539 1419 1307 1310 1214 1092 1052 1026 1028 1158 1122 1053 914 1158 1276 1168 876 920 882 1004 788 548 417 463 304 202 55 153 394 558 169 0 3 5 3 9 12 68 75 116
896 1205 1624 1717 1576 2175 2294 2316 2347 2363 2381 2320 2226 2140 2166 2188 2225 2177 2090 2019 1921 1841 1738 1721 1697 1702 1594 1520 1495 1531 1479 1483 1587 1593 1620 1655 1625 1516 1360 1370 1464 1364 1182 1206 1256 1463 1479 1395 1276 1052 1045 928 951 1110 1198 1085 1028 918 1046 1212 1237 1194 1054 835 671 714 836 670 921 423 228 49 74 423 400 514 108 14 11 6 5 6 5 150 167
871 1111 1440 1423 1286 1859 2122 2214 2274 2306 2321 2271 2187 2172 2200 2224 2136 2086 2068 2039 1952 1762 1722 1744 1694 1726 1680 1626 1562 1516 1497 1413 1432 1483 1652 1509 1765 1448 1238 1190 1142 1288 1252 1120 1113 1206 1371 1156 1125 1082 1022 901 975 1208 1192 1151 1096 1014 959 1013 1178 1134 1041 1114 1015 843 787 1002 1079 1416 382 96 114 74 228 361 209 72 6 5 6 4 13 96 106
744 863 1078 1334 1121 1844 2031 2180 2071 2212 2289 2267 2165 2155 2131 2132 2138 1918 1958 2018 1899 1818 1823 1812 1747 1712 1698 1657 1676 1559 1495 1426 1474 1427 1417 1484 1547 1616 1118 1094 1098 1318 1268 1175 1119 1142 1178 1163 1102 1062 977 892 999 992 915 1028 994 984 946 994 901 1041 885 661 1108 924 1224 1349 1206 1676 345 106 86 101 279 354 332 122 23 18 52 9 4 4 46
490 704 904 965 1008 1905 2135 2222 2158 2267 2202 2164 2113 2087 2266 2263 2048 2070 2069 1920 1806 1918 1873 1833 1803 1759 1682 1695 1697 1595 1461 1443 1579 1943 2084 2030 1915 1911 1362 1159 1179 1245 1209 1128 1088 996 1087 1125 1146 1036 948 1008 1065 954 1002 991 991 1029 1001 1042 1042 766 1074 791 938 873 1037 1132 1094 930 523 412 63 26 718 595 392 104 20 14 74 79 43 6 6
610 557 942 1100 1441 1965 2234 2232 2242 2290 2248 2144 2218 2217 2217 2108 2074 2059 2012 1926 1943 1978 1934 1800 1725 1771 1822 1786 1730 1654 1457 1406 1668 1761 1789 1539 1346 1296 1572 1330 1066 1068 1099 1568 1636 1534 1150 1102 1103 1207 1276 1238 1034 901 974 1064 927 864 908 901 1018 1007 818 1145 924 1264 1365 1416 790 592 638 398 205 156 359 858 724 329 105 48 8 7 0 0 3
607 491 907 1237 1361 2091 2088 2124 2214 2126 2194 2178 2161 2138 2129 2124 2023 2008 1946 2016 2043 2008 1885 1770 1821 1898 1849 1748 1609 1446 1442 1536 1637 1444 1279 1233 1203 990 852 1074 913 893 992 1055 1092 1132 1110 1092 1240 1292 1357 1066 951 1095 1198 1001 1076 1074 1038 992 1073 1087 1117 1024 1267 1335 1023 861 694 801 437 153 62 170 342 728 752 479 100 15 48 8 4 4 1
681 707 878 1228 1505 1897 1933 2080 2171 2096 2182 2124 2266 2204 2126 2114 2114 2048 2052 2064 2089 1994 1927 1884 1790 1722 1576 1447 1625 1732 1739 1630 1703 1680 1599 1429 1069 1233 971 993 1070 1135 1080 1149 1121 1080 1211 1219 1357 1485 1150 1052 1472 1480 1265 1275 1267 1200 1202 1292 850 889 1227 953 1324 990 1332 525 547 540 621 477 144 188 473 628 702 418 251 101 8 3 5 5 3
933 1244 1367 1248 1884 1729 1965 2131 2170 2171 2192 2228 2218 2216 2217 2166 2141 2102 2012 2056 1988 1941 1873 1843 1824 1591 1545 1713 1638 1652 1722 1720 1685 1650 1529 1848 1764 1700 1643 1124 1117 1111 1093 1047 1046 1071 1076 1390 1534 1234 1201 1411 1494 1603 1475 1357 1429 1410 1298 1456 1199 1472 1498 1554 1588 1308 503 629 761 671 389 265 252 338 546 448 411 413 245 106 15 1 3 23 24
1104 1172 1516 1580 1542 1801 1998 2077 2206 2188 2146 2215 2168 2166 2170 2171 2109 2054 1998 2017 2029 1966 1762 1768 1703 1630 1524 1639 1663 1573 1642 1595 1561 1460 1798 1849 1852 1741 1513 1231 1153 1144 1143 1301 1556 1546 1341 1490 1449 1471 1514 1375 1409 1359 1389 1300 1230 1346 1169 1306 1333 1328 1303 1522 1308 1264 891 783 649 526 366 306 347 597 656 625 535 452 194 80 13 4 6 2 11
1330 1570 1569 1119 1296 1952 1991 2066 2169 2194 2148 2150 2190 2242 2260 2201 2193 2020 1978 2096 2064 1988 1916 1684 1522 1342 1240 1344 1660 1630 1718 1621 1532 1362 1520 1814 1816 1705 1470 1355 1338 1351 1542 1603 1721 1768 1756 1672 1551 1446 1390 1375 1427 1471 1336 1291 1190 1072 1184 1109 1367 1243 1265 1614 1343 1271 848 1028 931 849 453 387 458 961 772 791 620 521 231 43 49 22 11 8 5
1643 1500 1498 950 1381 1772 2149 2095 2178 2206 2130 2121 2158 2220 2286 2220 2046 1998 2093 2161 2170 2048 1846 1504 1346 1317 1180 1065 1517 1785 1803 1726 1596 1483 1597 1709 1660 1568 1466 1431 1449 1506 1558 1483 1443 1661 1597 1556 1438 1356 1358 1351 1425 1220 1024 1300 1213 1246 1129 1308 1528 1553 1669 1424 1599 712 714 965 1094 617 385 398 946 522 638 503 376 339 284 136 6 5 1 1 2
1821 1551 1352 1134 814 1610 1731 1688 2148 1999 2128 1879 1719 1995 2222 2075 2050 2193 2168 2083 1903 1905 1813 1470 1334 1345 1271 1214 1477 1678 1634 1657 1709 1572 1529 1603 1560 1471 1444 1437 1391 1408 1423 1277 1121 1422 1342 1201 1347 1274 1264 1383 1235 1239 1347 1306 1235 1256 1418 1675 1820 1665 1706 1870 1698 850 900 1018 1006 757 406 723 1112 817 658 458 322 283 316 380 159 66 43 5 10
1835 1649 1349 1248 1227 1139 1212 1700 1802 1493 1358 1266 1696 1884 1891 2044 2110 2105 2020 1924 1812 1802 1703 1542 1219 1165 1451 1483 1668 1973 1856 1754 1681 1598 1586 1534 1497 1545 1588 1476 1396 1426 1339 1196 1102 1092 1112 1079 986 1185 1286 1253 1249 1067 1199 1239 1187 1543 1243 1583 1624 1839 1955 1988 1761 1487 1168 854 886 751 405 392 926 621 586 483 368 325 266 250 221 160 146 56 7
1718 1497 1313 1090 1251 1234 1362 1219 1269 1079 956 1292 1351 1689 1831 1662 1631 1531 1716 1695 1724 1497 1490 1594 1544 1496 1548 1675 1760 1818 1873 1754 1641 1592 1655 1530 1507 1486 1426 1397 1299 1327 1236 1142 1015 962 1060 982 1105 1156 1161 1082 1098 1070 1214 1086 1180 1525 1051 1379 1674 1831 2074 2148 1650 1228 865 1210 898 736 536 828 638 529 496 403 336 359 319 271 192 88 24 6 1
1571 1400 1209 970 747 1188 1331 1224 922 587 1030 1568 1470 1184 1244 1209 1221 1292 1259 1212 1128 1126 1258 1206 1469 1587 1818 1723 1766 1714 1712 1589 1315 1405 1547 1665 1514 1465 1367 1364 1221 1123 1064 935 937 958 894 983 1040 1047 1079 977 1008 1159 1275 1376 1147 1090 1467 1443 1608 2056 2302 2209 1736 569 970 927 913 869 636 884 751 418 383 449 395 370 334 289 264 200 11 15 48
1529 1427 1123 964 666 519 829 833 498 655 790 1055 1064 992 929 1030 992 1067 962 828 602 941 924 1022 1234 1519 1748 1784 1719 1656 1116 1058 1164 1069 1397 1570 1550 1219 1373 1230 1121 1093 936 860 923 904 851 896 899 910 976 1061 1109 1162 1253 1243 1201 914 1200 1301 1803 2240 2201 1981 2173 956 929 838 820 781 985 904 699 689 548 491 411 318 288 282 337 280 195 32 26
1487 1341 1158 1206 806 678 635 450 757 801 705 975 645 574 667 867 716 749 718 634 716 906 1001 1207 1652 1684 1737 1650 1155 798 626 772 374 734 1180 1482 1624 1403 1296 1207 1125 948 751 750 732 769 847 816 879 935 1093 1106 1197 1201 1170 1142 875 1146 948 1226 1533 1714 1879 2168 976 979 829 758 822 803 1190 803 692 665 514 283 428 352 281 248 197 364 337 162 162
1653 1519 1164 859 647 830 859 639 849 770 863 786 662 563 762 661 626 651 787 793 935 1516 1686 1472 1303 1513 1445 1020 733 614 571 474 485 998 721 1302 1576 1472 1324 1211 1129 941 696 755 748 744 819 708 759 796 971 990 1122 1072 794 1163 1053 696 1240 1416 1393 1751 1973 1733 778 794 872 770 954 1308 1320 835 727 693 546 388 314 305 287 452 496 475 403 228 166
1483 1717 1444 1103 692 774 815 658 769 964 799 660 562 588 788 594 628 912 1076 1028 1228 1236 1198 1352 1363 1339 1194 992 818 698 614 777 899 621 472 1160 1563 1492 1377 1253 1216 1075 952 812 870 796 702 837 678 758 702 816 930 701 350 361 780 1179 1137 1091 1300 1637 1630 1671 1093 962 755 824 871 1492 1125 822 779 663 600 496 384 304 279 424 555 474 439 321 167
1290 1325 1076 787 656 625 729 657 668 727 723 587 618 675 786 833 949 1092 1049 804 1117 1375 1293 1322 1141 1230 1277 992 811 711 761 1021 982 1002 933 1272 1557 1521 1479 1364 1357 1316 1037 1027 1033 1130 894 908 966 752 787 476 160 162 176 366 455 671 634 1084 1177 1548 1720 1315 708 880 819 880 988 1546 1002 777 755 703 564 460 357 412 408 392 490 564 454 248 143
1326 1046 1071 924 1098 961 843 912 862 996 924 836 797 930 1044 1033 1069 1174 1070 1170 1446 1507 1443 1360 1238 1232 910 1114 1030 872 753 842 998 1035 1106 1345 1307 1484 1486 1390 1303 1195 1236 1015 1028 649 1055 765 374 637 452 286 342 472 384 458 604 679 716 1030 1268 1469 1659 1423 1055 1361 768 944 1315 1494 1304 1325 784 648 542 449 409 440 430 436 373 352 390 193 125
1380 1252 1179 980 1137 1086 848 849 989 1324 1245 1150 1097 1194 1165 1002 1088 1539 1419 1556 1402 1514 1536 1433 1343 1191 1153 1022 1028 678 884 921 858 832 1011 1268 1446 1634 1402 1360 1288 1201 1299 1323 1090 795 678 621 329 209 156 359 360 515 566 630 706 800 872 1038 1412 1650 1572 858 1004 859 841 1218 1431 1515 1408 1068 732 712 636 536 446 418 415 497 388 419 447 375 229
1291 1050 948 844 877 1181 1131 1336 1291 1183 1422 1244 1196 1167 1145 1211 1346 1472 1505 1538 1585 1438 1448 1361 1450 1418 1324 1242 912 715 866 1024 881 814 935 1079 1253 1454 1440 1435 1043 872 489 966 684 670 374 696 486 318 465 666 721 316 293 342 570 608 859 976 1187 1316 1508 859 1110 1000 654 1209 1573 1440 1364 872 819 746 604 431 497 451 492 451 432 535 526 424 268
1324 908 750 988 856 1160 1233 1253 1256 1350 1399 1478 1248 1153 1220 1273 1289 1507 1597 1807 1714 1767 1743 1729 1550 1506 1258 1081 890 774 848 986 1079 971 907 988 1135 1141 1004 991 1013 912 658 622 593 612 546 823 796 406 341 428 344 177 210 106 292 674 672 817 1234 1078 839 1031 1562 966 630 1036 1443 1511 1346 1386 1157 799 555 451 493 510 469 400 342 374 457 474 414
1296 821 636 724 1044 1203 1321 1440 1321 1422 1556 1423 1391 1322 1330 1383 1354 1440 1524 1517 1438 1486 1359 1544 1528 1437 1325 988 812 813 809 728 834 1024 995 1079 998 892 1102 1062 1096 1055 882 765 684 617 736 721 583 849 754 355 181 156 143 135 331 512 690 756 1121 1253 802 1042 1476 940 637 816 1106 1494 1476 1414 1486 988 680 533 479 588 543 434 343 172 310 617 488
1277 766 588 935 1134 1375 1530 1342 1358 1476 1507 1444 1400 1394 1360 1446 1484 1539 1673 1746 1562 1499 1500 1529 1582 1446 1401 1036 872 722 759 615 508 837 1071 1136 978 1047 989 1051 1203 1449 1175 885 781 762 631 874 854 1115 998 857 369 117 188 236 19 288 336 402 711 740 702 824 862 997 803 872 1214 1530 1507 1451 1281 1260 875 561 441 636 537 444 413 166 116 841 708
1435 1002 850 977 897 1133 1352 1184 1225 1422 1408 1430 1509 1698 1605 1492 1412 1591 1517 1523 1537 1472 1418 1476 1491 1441 1594 1033 752 693 666 700 660 1018 1110 1180 1247 943 974 907 1100 871 1036 1144 1383 1441 1089 1141 860 754 922 682 649 248 154 106 70 250 355 324 507 876 226 288 1065 1278 1041 910 1086 1216 1384 1352 1275 1306 1360 1116 593 511 443 404 446 333 174 177 777
1512 1227 1080 931 949 1129 1355 1299 1300 1352 1348 1350 1541 1580 1512 1294 1371 1202 1265 1317 1573 1388 1386 1410 1481 1382 1097 1273 822 690 647 813 1211 1200 1276 1304 1054 1057 1435 1316 1375 1076 1096 1534 1527 1067 1253 1142 1140 1006 639 886 760 393 367 258 181 125 239 354 570 751 187 364 794 1214 832 914 766 916 1091 1216 1199 1074 1367 1699 965 453 357 415 407 368 378 186 432
1528 1438 1401 804 1212 1278 1316 1227 1060 1621 1478 1492 1394 1367 1613 1263 1319 1302 1377 1525 1572 1456 1486 1423 1722 1401 1426 1183 1042 982 1186 1284 1364 1320 1282 1286 1336 1190 1292 1402 1338 1429 1404 1430 1388 1294 1351 1474 1108 1067 1331 994 450 355 375 225 317 224 84 258 304 220 333 560 766 1083 720 1075 1368 691 846 851 1081 1236 1346 1359 1267 991 500 392 428 400 460 342 162
1396 1215 1148 1091 1303 942 1420 1666 1514 1523 1662 1501 1718 1434 1470 1245 1398 1423 1517 1646 1473 1511 1545 1721 1802 1620 1374 1578 1188 929 1203 1342 1385 1168 1274 1205 1275 1214 1203 1286 1478 1438 1559 1639 1594 1602 1470 1339 967 795 941 962 932 616 605 596 556 127 324 526 341 366 419 636 926 1085 1140 879 1586 1172 1622 798 754 706 1011 1409 1439 1310 886 485 490 426 314 380 300
1478 1458 1403 1226 1125 1348 1747 1782 1525 1397 1423 1484 1432 1453 1517 1263 1098 1214 1566 1665 1630 1668 1832 1909 1662 1571 1474 1307 1508 1442 1262 1429 1222 1434 1111 1209 1217 1158 1270 1388 1196 1404 1418 1510 1645 1576 1439 1268 1145 1408 936 1087 948 700 928 720 1015 319 488 208 149 536 385 500 885 1243 1370 1393 1596 1212 1400 1874 2004 766 836 1030 1288 1087 1062 956 620 605 501 253 348
1598 1639 1423 1169 1366 1730 1802 1818 1821 1669 1666 1581 1666 1684 1650 1626 1464 1476 1857 1933 1735 1853 1886 1736 1548 1545 1478 1548 1536 1403 1275 1387 1097 1263 1084 1072 1250 1248 1383 1102 1040 1383 1090 1508 1537 1334 1431 1313 1184 1117 1201 1258 1033 1088 1287 533 976 727 405 221 468 674 616 693 871 855 863 1252 1340 1318 1329 1692 1643 1625 1945 1336 990 859 1032 1350 1316 945 639 554 369
1846 1674 1419 1381 1462 1720 1954 1946 1716 936 1871 1814 1760 2158 2043 1652 1674 1664 1894 2110 1870 1698 1752 1764 1617 1611 1484 1187 1272 1648 1473 1337 1221 1292 1283 1076 941 1104 1071 1091 1039 1294 1201 1306 1170 1463 1460 1171 1299 1195 1387 1386 1113 1120 1674 1184 939 741 620 453 776 494 1031 847 884 966 1373 1089 1026 929 887 1235 1760 2003 1400 1282 1695 822 1093 1413 1322 1260 1100 783 696
1751 1519 1756 1722 1517 1782 1977 1890 1667 1638 2034 2070 2186 2394 2042 1932 1828 1862 1907 1731 1664 1548 1374 1178 1494 1433 1454 1498 1396 1839 1570 1123 1236 1373 1085 1071 1035 835 908 1057 1237 1256 1152 1261 1299 1398 1540 1730 1695 1438 1323 1574 1488 1194 1096 1183 761 1053 560 700 634 692 968 770 1050 1358 998 1112 1144 1084 1180 1140 910 1022 1050 1169 1039 1306 790 843 1122 1035 1203 942 1075
1655 1687 1331 1489 1457 1683 1971 1912 1710 2156 2089 2181 2393 2328 2437 2215 2161 2101 2104 1956 1700 1552 1485 1275 1297 1417 1402 1649 1728 1576 1718 1412 1294 1029 780 753 680 778 876 906 848 1166 1344 1169 1098 1255 1531 1672 1613 1572 1397 1367 1335 1370 859 667 924 709 605 609 841 675 866 974 712 817 986 925 982 1037 1121 1215 1134 821 996 928 995 1073 868 1264 1129 1086 1020 755 1204
1895 1840 1468 1434 1486 1768 1962 1974 2037 2245 1971 2426 2270 2352 2191 2042 1952 1941 1824 1666 1256 1117 1198 1146 1109 1174 1222 1467 1675 2055 1569 1691 1324 899 827 512 717 567 818 844 998 1343 1218 1014 1233 1216 1424 1519 1593 1391 1514 1172 1359 1006 762 572 611 426 720 756 574 760 818 1271 857 634 898 937 778 636 816 970 800 747 717 782 772 781 828 854 1119 851 1074 692 690
1798 1755 1478 1096 1053 1594 2215 1704 1900 1704 1735 1916 2058 1788 1836 1766 1905 1759 1676 1482 1090 1070 1249 973 1000 1146 1036 1065 1424 1477 1680 1468 1254 1041 903 862 602 496 635 1084 1109 975 766 912 1042 1278 1249 1592 1514 1149 1334 1485 1345 1189 825 650 496 555 512 674 689 825 1159 1030 956 1238 696 702 459 483 717 1000 637 697 791 799 896 1077 839 1010 1104 1172 1201 897 687
1735 1718 1286 914 980 1254 1783 1928 2152 2165 2233 2265 2240 2316 1766 1716 1854 1392 1077 926 789 841 963 1335 1306 1259 1440 1444 1621 1368 1500 1624 1241 1076 832 710 724 822 1072 1321 1296 1133 836 1147 1323 1414 1297 1570 1289 979 970 1144 1088 1001 685 525 274 434 582 676 774 1168 1217 878 1027 1055 805 827 434 408 589 870 730 657 710 722 692 761 889 1155 1410 1324 1330 1414 974
1690 1643 1184 891 865 1269 1747 2087 1980 2004 2000 2398 2331 2318 2289 1705 1812 1247 1198 621 473 984 570 800 1165 1111 1612 1382 1514 1456 1429 1259 1463 974 732 965 1018 1078 1303 1390 1264 1298 1207 1138 1408 1344 1436 1239 1092 1135 891 899 712 796 685 560 479 631 611 617 601 638 644 823 965 975 1088 1072 905 321 432 627 643 771 661 615 509 925 991 936 1074 1324 1385 1322 1064
1774 1600 1051 1071 1067 1316 1715 2055 2084 2128 2188 1619 1210 2008 2479 2202 2090 2253 1887 1648 1032 738 539 564 1078 911 1157 1261 1308 1506 1278 1184 1200 1073 1507 1166 1353 1211 1428 1255 1485 1340 1404 1336 1236 1486 1354 1259 1135 1028 1067 858 905 988 876 664 527 406 316 405 487 396 279 636 811 741 940 888 567 677 509 738 584 532 807 468 632 741 1175 935 459 785 1002 859 694
1898 1476 1283 1281 1040 1558 1686 2156 2189 1908 1460 1177 1324 1290 2303 2062 1886 1177 969 925 820 838 745 328 533 798 1110 1278 1228 1288 1060 921 1148 1067 1014 1100 1084 1025 831 1112 1293 1345 1140 1269 1388 1416 1525 1392 1107 1022 961 1071 815 772 961 705 577 602 972 558 306 324 452 534 577 740 1053 1086 641 440 413 538 472 626 604 662 780 970 572 1090 432 529 360 485 114
1814 1390 1115 923 1016 1165 1617 1964 1752 1679 1282 1019 1144 1288 1317 2356 1697 1216 761 734 786 854 1041 1076 497 379 528 813 827 915 785 792 823 694 727 716 832 939 829 1135 1442 1020 1199 1436 1131 1461 1428 1283 1136 1230 1094 796 1036 972 1196 727 819 742 609 1123 673 578 567 663 470 327 712 1240 814 440 266 229 442 689 322 353 551 543 806 14 155 140 155 33 0
1826 1348 842 730 1163 1266 1740 1840 1709 1433 1102 891 788 1213 1152 1787 1644 1098 684 835 810 1216 892 736 931 412 480 898 832 935 680 944 717 447 362 489 878 768 555 985 920 1316 1310 1291 1460 1345 1095 963 1284 1351 1220 977 815 725 820 678 502 516 620 1024 1114 1143 865 468 411 296 274 453 474 527 422 739 400 346 504 619 602 98 0 1 0 0 0 0 0
1320 955 725 725 1131 1313 1694 1595 1548 1231 1277 920 672 854 1255 1791 1547 1002 786 1143 1306 886 1087 1078 655 552 801 597 774 696 742 614 643 140 240 761 792 746 695 654 445 508 541 838 1470 1211 1399 1149 1374 1380 1322 1190 1246 906 565 599 497 378 577 602 768 1155 1243 1176 416 364 202 144 127 206 324 434 426 258 330 302 12 8 19 0 0 0 0 0 0
1084 1041 604 857 1089 1290 1626 1413 1170 1051 1036 1001 1066 1058 1130 1541 1862 1528 1208 1336 772 995 510 307 553 629 606 615 716 398 775 804 602 614 569 322 782 907 734 567 1099 331 275 482 736 826 1163 1192 1479 1478 1220 1254 1134 914 632 332 334 254 417 594 849 1027 1193 1119 618 305 344 160 94 81 21 12 18 25 3 1 1 2 0 0 0 0 0 0 0
1040 1122 860 823 1081 1234 1398 1238 1100 960 764 700 995 1197 1052 913 1435 1398 1519 668 731 610 329 487 632 694 902 1087 1104 1051 874 683 869 462 444 496 527 589 538 537 633 505 447 519 731 868 1060 1107 1368 1380 1291 974 1347 1235 1219 1206 873 756 573 778 683 601 720 918 790 707 697 396 122 13 2 6 0 12 15 3 0 0 0 0 0 0 0 0 0
906 1103 816 925 1264 1334 1089 757 788 783 664 582 886 1116 795 959 1372 1619 670 603 643 656 547 420 528 782 1000 856 901 1001 688 992 781 703 863 627 726 614 456 379 406 771 385 359 664 544 918 1051 1096 1104 983 1166 978 763 1288 1117 950 836 512 473 608 559 443 404 535 639 538 696 223 18 4 0 0 8 78 0 0 0 0 0 0 0 0 0 0
Wind_Speed
35 38 36 39 40 38 37 38 40 41 42 41 42 43 43 43 43 44 44 44 42 43 42 41 40 39 36 34 32 31 30 28 27 26 26 27 29 30 30 30 29 27 27 26 25 24 22 20 19 18 20 19 18 18 18 19 20 19 18 17 16 14 14 14 14 16 17 17 17 16 16 15 15 15 17 nan nan nan nan nan nan nan nan nan 14
36 35 35 37 40 39 39 40 41 41 42 42 43 43 44 44 44 44 43 43 43 42 41 41 41 39 37 34 32 30 29 28 28 27 27 27 28 30 30 30 29 28 27 26 25 24 22 21 21 19 20 20 19 20 21 21 21 19 17 15 14 13 12 13 13 13 16 17 17 nan nan 16 17 17 17 nan nan nan nan nan nan nan nan nan 17
36 36 34 37 40 40 40 40 41 42 42 43 44 43 44 44 43 43 43 42 42 42 42 41 41 39 37 35 32 30 30 28 28 28 27 26 27 29 29 30 30 29 28 27 25 23 22 21 22 21 20 20 19 20 22 21 19 18 16 14 12 11 10 11 12 12 12 15 17 16 18 17 16 16 17 nan nan nan nan nan nan nan nan nan 15
36 34 33 36 40 39 41 40 41 42 43 43 42 42 42 42 43 43 42 42 42 43 43 41 39 37 36 35 32 31 30 29 29 28 27 26 26 28 28 28 28 28 27 26 24 23 21 21 22 21 20 19 19 20 20 20 19 17 16 12 9 9 10 9 10 10 11 15 17 12 7 nan 10 16 16 15 nan nan nan nan nan nan nan nan 18
36 34 34 36 38 39 40 41 41 43 43 42 42 42 43 41 42 42 42 42 42 42 41 40 39 36 36 35 33 31 29 28 28 27 27 26 26 27 27 27 28 28 27 26 25 23 23 22 22 21 19 19 20 20 20 20 18 15 13 10 8 7 6 8 7 9 11 12 13 10 8 nan nan 14 15 15 15 nan nan nan nan nan nan 18 17
37 37 37 37 38 39 39 40 42 43 42 42 42 42 42 42 42 42 42 42 42 41 41 39 38 36 35 35 33 31 29 27 27 27 26 25 24 25 27 27 27 28 27 26 24 23 22 22 21 21 20 19 20 21 20 20 18 15 11 9 7 5 3 4 5 8 7 9 8 4 8 nan 9 nan 13 14 15 nan nan nan nan nan nan nan 17
40 37 37 37 35 37 37 40 43 43 42 41 41 41 41 41 41 42 42 42 41 41 40 39 36 36 35 34 33 31 29 27 26 26 27 26 24 23 26 26 27 27 26 25 24 23 23 22 22 21 21 20 20 20 20 19 18 14 10 7 5 2 0 3 2 4 5 4 2 4 7 9 nan 8 13 13 14 15 nan nan nan nan nan nan nan
37 34 35 35 35 37 37 40 43 42 42 41 41 41 41 40 41 41 41 42 41 40 40 38 36 35 35 34 32 31 29 28 27 25 25 24 23 23 25 25 26 26 25 24 22 22 22 22 22 21 21 21 21 21 20 19 16 12 8 7 6 6 4 4 3 3 5 4 6 3 10 9 nan nan 13 13 14 17 nan nan nan nan nan nan nan
36 36 35 35 36 40 38 39 41 42 41 42 41 41 41 41 40 40 42 41 41 40 39 38 36 35 34 33 32 30 29 29 28 26 26 26 27 26 24 25 25 25 23 21 20 20 21 21 21 21 21 22 22 21 20 18 14 11 10 8 8 7 7 6 4 6 4 6 4 10 11 8 8 7 11 16 15 17 19 nan nan nan nan nan nan
38 35 35 34 36 38 39 40 40 43 42 42 42 43 43 41 41 42 42 41 40 39 38 37 36 35 33 32 31 30 30 29 29 28 26 26 26 26 26 25 25 25 23 23 22 21 21 21 21 21 22 22 22 22 21 17 14 12 10 10 9 8 7 7 9 8 3 5 14 15 11 12 nan 9 11 15 17 17 nan nan nan nan nan nan nan
36 35 34 36 39 38 39 39 40 42 42 43 44 44 43 42 42 42 41 40 39 37 37 36 35 34 32 32 33 31 30 30 30 29 27 25 25 25 27 27 26 24 24 22 20 20 20 21 21 22 21 21 23 21 19 17 14 12 12 9 8 8 8 5 7 3 2 11 13 11 12 15 7 5 12 15 16 18 17 17 nan nan nan nan nan
35 33 34 35 39 38 38 39 40 41 42 43 44 44 44 44 43 42 40 39 38 37 36 35 33 33 34 33 32 31 31 31 31 30 29 27 26 27 27 27 26 24 22 22 20 19 20 21 22 21 20 20 19 19 18 16 14 11 11 9 7 8 7 8 5 2 5 15 16 12 11 10 7 9 14 15 16 17 16 17 nan nan nan nan nan
33 35 34 35 36 35 37 38 39 41 43 44 44 45 44 44 43 41 39 38 37 36 36 35 35 34 33 32 32 31 32 32 32 32 29 28 27 28 27 27 26 23 22 22 20 20 20 22 21 21 19 19 17 16 17 15 14 12 10 9 8 9 10 11 5 4 10 14 15 15 12 8 6 11 13 15 16 16 15 nan nan nan nan nan nan
32 34 34 33 32 36 36 37 38 40 41 42 42 42 42 41 40 39 38 37 37 37 38 38 35 34 32 30 32 32 32 34 35 34 31 30 28 28 27 27 26 24 23 22 21 21 21 20 21 18 17 16 15 15 15 15 15 13 10 9 10 11 10 8 6 3 14 17 15 16 12 7 7 12 12 14 16 17 16 nan nan nan nan nan nan
33 33 32 31 32 31 37 36 37 39 40 41 41 40 39 38 38 37 36 36 38 38 38 38 36 35 34 32 31 33 32 34 35 34 33 33 31 30 28 27 26 24 22 21 21 21 21 20 18 16 15 16 15 13 14 16 16 14 11 11 11 11 11 9 10 10 12 17 15 16 13 9 9 12 13 14 14 16 16 16 nan nan nan nan nan
31 31 31 31 32 30 31 36 38 39 41 43 41 38 36 35 34 33 33 35 35 37 37 37 36 35 34 32 31 33 33 35 36 34 35 36 35 33 30 27 26 23 21 21 21 22 20 19 17 15 14 14 15 14 14 16 16 14 12 11 12 11 11 11 9 9 17 15 16 15 13 10 14 14 13 14 14 14 15 16 16 nan nan nan nan
29 30 31 32 32 31 31 32 36 43 45 43 35 35 35 32 32 31 32 34 35 37 37 36 36 33 31 32 32 32 35 36 36 36 37 38 37 35 30 26 25 22 21 21 21 21 21 18 16 14 14 13 14 14 12 15 17 16 12 12 11 10 11 12 10 8 12 17 17 16 13 12 12 15 15 14 15 15 15 17 17 16 16 nan nan
28 29 31 31 31 31 32 32 36 38 37 36 34 33 34 34 33 32 32 32 32 35 34 32 30 29 30 33 34 35 37 38 38 37 38 39 38 35 28 24 22 20 21 21 20 20 20 18 16 14 13 13 13 12 13 15 16 16 12 11 11 12 12 11 11 8 16 19 19 18 14 16 17 15 15 15 15 15 14 15 17 nan nan nan nan
27 28 29 29 30 32 34 36 35 35 32 29 27 32 35 34 33 33 32 31 31 33 32 27 26 25 28 33 37 38 39 42 40 39 39 39 38 32 25 22 20 19 20 19 19 19 19 18 16 14 12 13 12 12 13 15 16 16 12 11 12 13 11 12 10 13 19 16 19 18 16 20 19 16 16 16 15 15 15 15 16 17 nan nan nan
26 27 27 27 28 30 32 35 35 31 30 30 27 27 30 34 33 31 30 32 32 28 27 22 25 26 30 34 36 37 41 40 42 35 34 35 30 26 23 19 19 20 20 18 18 18 18 17 16 14 13 13 13 11 12 15 16 15 13 12 13 13 14 13 8 19 16 19 20 18 21 23 22 20 18 17 17 16 15 14 14 17 18 nan nan
23 26 24 25 28 28 27 34 34 31 30 30 27 26 29 33 29 27 28 30 25 23 25 25 24 26 30 31 33 35 36 37 38 26 22 24 25 24 20 18 19 21 20 19 18 17 17 15 14 14 13 13 12 11 11 13 14 15 13 11 14 16 15 14 19 19 17 20 21 20 23 26 23 21 20 18 19 17 16 14 14 16 18 18 17
21 21 24 26 27 26 29 37 31 31 30 26 26 25 24 23 21 22 24 22 19 22 24 21 23 24 28 26 26 28 29 32 32 26 22 21 22 20 19 19 21 21 21 20 19 17 16 14 12 12 12 13 12 14 13 12 12 14 13 13 17 17 15 19 22 19 19 21 21 21 25 26 24 23 22 20 19 19 18 18 17 16 17 17 17
22 20 23 26 25 28 30 33 33 29 30 28 26 25 23 22 25 25 22 20 20 21 19 21 22 25 23 24 26 25 26 28 25 25 22 15 18 18 20 22 23 23 23 21 20 17 14 12 11 11 13 13 15 14 13 15 15 12 14 17 17 16 19 19 22 20 21 22 21 25 25 26 26 25 23 22 21 21 19 19 19 17 16 16 17
22 19 23 27 27 28 33 31 34 32 30 27 26 25 24 24 24 22 20 19 20 20 20 21 22 23 24 26 25 25 25 24 26 24 20 15 16 17 20 24 26 25 25 22 19 17 14 12 10 11 14 15 15 13 11 15 15 17 16 16 17 17 20 21 22 19 20 25 24 26 27 26 26 26 25 23 22 22 22 20 20 18 17 16 17
22 21 25 26 28 28 32 32 32 31 33 29 27 25 24 24 22 22 24 24 22 20 19 20 22 24 25 24 23 23 23 22 20 17 16 14 14 14 17 19 22 24 25 20 21 18 17 15 15 15 14 14 12 11 10 11 18 17 16 16 16 21 21 24 22 20 20 25 25 28 27 23 26 27 26 23 23 24 24 23 21 19 19 17 17
22 23 24 24 28 29 32 31 32 31 29 27 27 28 30 26 24 25 26 24 23 20 19 22 23 23 21 19 19 18 17 16 16 16 16 14 12 11 12 14 16 20 20 18 20 21 18 20 18 15 13 11 10 10 11 14 16 16 16 15 19 21 20 26 24 23 22 26 27 29 27 25 27 28 27 25 25 25 25 25 24 21 20 18 18
21 25 25 26 28 31 30 30 30 28 28 28 30 29 28 26 25 25 25 23 22 22 23 23 19 17 16 15 14 14 13 14 15 16 15 14 11 11 11 10 12 16 15 16 18 18 15 13 11 8 12 13 13 11 13 13 14 14 14 16 17 20 19 24 22 23 23 25 26 30 26 25 27 27 26 25 26 26 26 25 24 23 21 21 20
24 27 27 28 30 32 33 33 30 29 30 30 30 28 27 26 25 23 21 22 21 22 21 16 13 14 16 16 17 16 15 16 14 15 13 12 12 13 13 10 12 15 14 11 15 14 13 13 10 7 9 10 13 11 12 11 13 12 14 13 16 16 26 21 21 24 24 23 24 27 25 23 24 27 25 25 27 27 27 26 25 23 22 23 23
27 27 28 30 32 33 36 33 31 32 32 31 29 27 27 27 24 20 18 21 20 20 16 14 13 14 17 18 22 21 19 19 15 15 13 12 12 13 13 12 13 15 16 14 12 14 13 12 10 9 10 10 12 14 10 10 12 12 12 13 13 16 25 22 21 24 24 23 22 23 25 23 22 24 26 25 26 27 26 26 25 23 23 24 23
27 28 30 31 32 30 32 34 32 32 31 29 26 25 25 25 22 18 19 19 19 19 16 14 14 16 18 20 22 21 18 15 13 14 14 13 12 12 12 12 11 13 14 15 15 15 12 15 12 10 12 11 11 10 9 10 nan 10 13 13 13 14 25 24 24 18 22 21 19 20 24 23 24 24 24 23 24 26 26 26 25 24 22 25 23
29 30 31 32 31 26 25 31 31 30 29 26 25 24 23 22 20 19 19 18 18 17 15 15 16 19 20 22 21 19 17 11 11 12 14 13 14 13 12 12 11 12 11 11 16 14 13 14 13 14 16 13 10 10 6 8 nan 13 10 8 13 14 28 25 19 19 20 19 19 19 20 23 23 25 24 21 21 24 25 25 25 23 22 22 22
29 29 29 31 28 25 25 29 31 28 26 26 24 23 21 20 20 19 17 16 17 15 15 15 16 19 18 20 19 17 16 13 11 12 14 12 13 13 12 11 12 12 10 11 13 13 12 13 13 11 13 13 11 10 5 8 9 9 11 10 10 18 26 23 18 17 17 18 20 17 17 17 20 22 22 23 21 20 23 24 23 23 22 21 23
27 29 32 32 26 26 25 26 28 26 24 25 24 21 20 21 18 16 14 14 13 13 14 13 15 18 18 20 20 16 18 15 13 13 14 12 12 12 9 8 9 9 9 10 11 11 10 10 9 8 9 12 12 11 10 12 13 11 nan 9 11 23 22 19 14 16 18 17 17 17 15 16 17 20 23 25 26 24 22 23 23 23 22 23 22
28 28 33 29 27 21 20 22 26 24 24 24 21 20 18 17 15 13 14 14 13 13 12 12 13 17 17 19 20 19 19 15 14 15 13 13 12 11 8 7 7 9 10 8 9 9 9 7 6 7 10 12 14 12 13 12 12 15 13 10 16 19 19 16 15 18 17 16 15 18 18 19 19 18 19 23 23 24 24 23 24 24 24 23 22
27 28 31 30 25 22 21 21 26 24 23 22 21 19 17 17 14 15 16 15 14 12 12 13 13 13 15 14 15 15 16 16 14 13 14 13 11 11 9 9 8 9 8 7 6 8 8 6 6 9 9 11 11 11 13 12 11 16 13 15 15 20 18 17 18 17 16 17 18 19 19 20 21 19 20 18 18 20 21 22 24 23 23 22 21
27 28 30 27 24 23 21 22 22 21 20 19 20 19 18 15 16 18 18 14 13 12 12 12 12 12 13 13 14 14 14 14 15 14 15 11 10 10 10 10 8 8 7 7 6 6 6 6 6 7 7 7 7 9 11 8 10 11 17 23 15 14 17 17 18 19 17 17 19 19 21 21 21 21 21 18 15 14 14 17 19 19 20 19 20
28 28 29 26 24 22 20 22 23 20 19 18 19 19 18 18 18 18 16 13 12 12 11 11 10 10 11 14 11 13 13 15 14 14 14 12 10 11 12 10 9 8 6 7 6 4 3 4 5 5 4 6 8 10 9 10 11 15 15 22 16 14 11 15 16 16 15 17 19 20 20 21 21 21 18 16 13 14 12 15 17 16 16 16 17
27 27 28 24 24 22 21 21 23 21 19 18 18 19 19 20 20 18 15 14 12 11 11 10 10 9 9 12 12 13 14 14 13 15 14 14 12 13 12 10 9 8 7 6 6 5 4 4 5 6 6 8 10 9 10 11 13 15 15 17 15 10 9 12 9 10 15 19 20 21 22 21 20 18 16 14 14 15 16 17 18 16 15 16 16
26 28 27 25 24 23 21 23 22 22 20 19 20 19 19 20 21 19 16 14 12 11 12 10 10 9 9 10 12 13 13 16 16 17 14 13 13 13 12 12 11 9 8 7 7 7 6 4 5 7 7 9 10 10 11 13 14 15 17 14 8 6 9 12 12 8 17 17 20 24 22 21 21 18 16 16 16 15 16 15 13 13 13 15 18
27 28 27 26 27 25 23 23 22 22 21 21 19 17 18 21 22 20 17 13 13 12 8 10 9 8 12 11 12 13 14 14 19 17 14 12 16 14 12 11 11 10 8 6 6 7 7 5 6 7 10 11 11 9 13 13 13 15 13 12 9 4 8 9 10 11 12 19 22 22 15 19 16 14 14 16 16 14 13 14 11 11 10 15 17
26 25 28 29 30 25 24 24 22 23 21 20 18 17 19 21 22 20 18 13 14 11 11 10 8 12 11 13 13 12 15 14 19 18 15 15 17 14 12 10 11 11 10 5 5 8 8 7 9 8 10 10 9 10 12 12 14 10 9 10 7 8 10 11 11 14 19 15 20 17 14 16 16 12 12 14 15 14 12 11 10 8 12 15 15
24 25 29 33 31 24 24 24 24 24 23 21 20 19 20 21 21 20 17 14 14 11 11 12 13 12 13 14 14 13 16 16 19 20 17 15 15 13 11 11 10 12 11 7 6 9 9 9 9 9 9 10 8 11 12 12 12 11 9 7 9 11 11 11 10 14 19 20 21 18 12 12 16 16 13 13 12 11 9 9 8 9 12 13 14
22 25 31 37 32 22 19 25 25 25 24 23 21 20 21 22 20 21 17 15 13 12 13 13 13 14 13 14 13 14 15 16 18 21 16 12 13 12 11 12 10 9 9 7 7 10 10 9 9 8 11 9 9 10 12 11 12 13 9 7 9 10 9 10 10 14 16 18 23 22 16 15 16 12 13 12 11 9 10 9 8 9 11 12 12
21 27 34 36 30 22 23 29 27 26 26 25 26 23 22 22 24 23 23 20 18 17 15 12 14 13 12 14 13 12 14 15 18 20 16 14 10 11 11 12 10 8 7 6 8 9 10 10 11 9 10 10 8 9 12 10 11 13 10 8 11 12 10 10 12 13 15 17 23 21 15 17 16 13 11 13 12 11 9 9 9 10 12 12 13
24 28 33 33 30 28 29 29 28 27 25 26 26 24 25 26 28 26 23 21 17 16 14 14 12 13 15 14 14 12 13 15 18 18 18 16 12 12 11 10 11 10 8 7 7 8 10 10 11 10 10 10 11 9 10 10 10 8 10 12 13 12 10 13 12 14 15 18 21 22 19 20 15 13 13 13 13 11 9 10 12 12 17 16 18
27 28 35 37 32 27 27 30 27 25 24 26 26 27 26 27 28 25 21 19 18 15 13 13 14 12 14 15 14 14 16 13 14 15 16 14 12 15 14 12 12 11 10 8 8 9 10 10 10 10 11 12 13 11 11 9 9 8 7 10 12 11 14 14 13 15 16 18 18 21 23 23 19 15 14 13 13 13 13 nan 17 19 19 nan nan
29 32 38 38 33 28 22 26 22 22 22 24 26 25 28 24 25 23 20 18 16 14 16 13 14 17 16 15 16 15 15 15 17 15 13 11 11 11 10 11 14 13 12 10 9 9 9 10 11 10 11 13 14 13 12 10 9 8 6 9 11 9 15 16 15 19 20 17 17 20 21 20 19 17 15 15 16 nan nan nan nan nan nan nan nan
33 37 36 32 28 25 17 21 18 20 20 24 26 23 23 18 18 18 17 15 16 18 16 16 17 16 16 15 13 11 13 14 14 14 12 12 12 10 9 10 11 13 12 11 12 13 10 11 12 11 11 13 14 15 14 13 9 8 10 10 7 11 14 14 18 18 20 20 20 16 19 21 21 20 19 17 nan nan nan nan nan nan nan nan nan
36 38 33 30 26 21 22 20 18 19 21 23 24 23 23 21 17 17 15 17 19 17 18 18 17 15 14 11 10 10 11 11 13 13 15 14 13 13 11 10 9 13 13 13 11 13 17 14 14 14 13 15 14 16 17 14 13 13 14 9 10 13 14 16 15 16 18 20 nan nan nan nan nan nan nan nan nan nan nan nan nan nan nan nan nan
36 33 27 26 22 22 25 25 23 21 22 21 22 25 24 21 14 13 16 17 16 16 17 16 16 12 12 10 11 10 11 10 10 11 13 13 15 15 14 13 12 14 14 14 14 14 16 16 18 15 14 15 14 15 17 17 18 19 17 15 16 16 15 14 15 15 19 17 18 nan nan nan nan nan nan nan nan nan nan nan nan nan nan nan nan
36 25 19 17 19 20 21 26 22 16 15 16 20 16 18 16 9 12 16 15 13 15 17 15 14 12 12 11 10 11 10 12 12 11 13 15 14 18 18 17 15 15 17 14 15 17 17 17 18 18 15 17 17 14 17 19 19 20 21 18 17 15 13 13 14 14 15 16 18 nan nan nan nan nan nan nan nan nan nan nan nan nan nan nan nan
Wind_Direction
285 289 288 291 292 293 293 296 299 301 302 302 304 305 307 309 310 310 309 307 305 304 304 303 303 302 301 298 296 294 294 292 292 293 292 294 296 296 297 299 300 301 302 302 300 297 292 289 285 280 274 269 270 267 263 261 260 258 256 257 263 270 279 275 275 272 269 265 259 249 241 243 244 236 228 nan nan nan nan nan nan nan nan nan 252
288 286 285 287 289 292 295 299 301 304 304 305 305 307 309 310 310 308 307 305 304 303 304 303 303 302 300 299 296 294 293 292 292 291 291 293 296 299 300 301 303 303 304 303 300 295 294 289 283 278 273 273 269 265 263 261 259 261 261 263 271 278 274 280 281 285 285 278 270 nan nan 242 240 241 235 nan nan nan nan nan nan nan nan nan 247
283 282 282 285 288 294 297 300 302 305 305 306 306 307 309 310 308 306 304 303 302 303 303 303 302 301 299 300 298 293 291 291 290 290 291 293 295 299 301 304 307 306 303 303 299 296 291 287 284 280 275 273 272 268 264 261 260 260 265 273 283 284 292 295 298 295 297 292 286 271 252 241 240 242 243 nan nan nan nan nan nan nan nan nan 242
282 280 280 285 289 294 297 301 303 304 305 305 306 307 308 307 305 303 302 302 302 303 303 302 300 299 298 299 299 295 290 289 289 289 290 291 295 299 302 302 306 305 302 299 294 291 289 285 282 281 279 278 274 268 266 262 262 261 260 266 272 285 292 300 305 300 302 308 304 279 246 nan 231 244 242 241 nan nan nan nan nan nan nan nan 236
281 281 284 288 295 297 300 302 303 304 304 304 306 308 307 305 303 301 300 300 301 301 301 299 298 297 297 297 298 295 289 288 289 289 290 294 296 299 301 301 304 305 302 300 298 296 292 289 284 280 280 280 275 272 268 264 262 263 263 262 262 270 286 301 321 331 329 331 333 258 256 nan nan 236 239 239 234 nan nan nan nan nan nan 240 235
282 285 289 292 297 300 301 302 303 303 303 305 306 306 305 304 302 299 298 298 299 300 299 297 297 296 295 295 296 294 287 285 289 289 289 292 294 299 300 302 303 302 301 300 301 300 297 291 286 283 281 281 279 273 269 264 262 259 257 255 260 254 282 338 324 337 353 356 37 138 257 nan 225 nan 239 238 238 nan nan nan nan nan nan nan 236
284 286 290 293 298 300 300 301 304 303 303 305 306 305 304 302 298 298 298 297 298 297 297 297 295 294 293 293 294 292 286 283 286 290 291 293 296 296 299 300 302 300 301 303 305 302 296 292 288 284 283 283 280 275 269 264 261 256 251 250 248 304 235 313 34 11 30 350 43 82 252 240 nan 217 228 233 242 239 nan nan nan nan nan nan nan
284 288 293 295 298 300 300 301 303 302 305 305 304 304 301 298 298 296 295 296 295 294 295 293 291 290 290 290 291 290 285 282 280 278 277 279 281 285 291 295 298 299 303 305 304 302 299 294 289 285 283 282 278 274 269 266 262 259 249 243 220 212 197 179 166 45 114 59 68 325 253 242 nan nan 226 232 242 245 nan nan nan nan nan nan nan
290 294 294 296 298 301 299 300 302 304 305 304 301 300 300 298 295 294 293 293 292 292 291 289 288 287 287 287 288 287 284 280 276 276 277 278 280 282 288 293 294 299 301 300 296 295 296 294 290 287 285 280 276 274 271 267 266 257 244 225 220 206 198 171 152 143 97 42 238 257 264 247 232 212 233 239 238 234 233 nan nan nan nan nan nan
294 297 295 294 300 298 298 301 303 304 302 301 300 300 298 294 294 293 292 291 289 288 287 287 286 285 284 285 285 284 281 279 278 279 283 284 284 283 285 285 292 297 299 298 298 300 299 296 292 290 287 282 280 276 272 270 262 254 241 229 217 206 194 182 167 143 113 270 256 252 244 249 nan 218 236 237 236 238 nan nan nan nan nan nan nan
297 296 296 295 300 299 302 302 302 302 300 301 299 297 295 293 292 292 291 290 288 286 285 286 285 283 281 280 280 278 277 280 281 281 280 282 283 282 287 288 289 293 297 297 301 302 300 297 292 292 288 286 280 277 274 269 260 246 237 230 206 211 201 182 166 178 54 280 280 272 264 259 232 222 242 241 241 239 241 241 nan nan nan nan nan
294 291 291 295 301 302 302 301 301 300 300 299 297 296 295 294 293 292 290 288 286 285 285 284 284 282 279 278 280 280 280 280 282 284 285 284 280 275 277 286 288 292 294 295 297 302 300 292 294 291 290 288 284 277 272 267 256 245 233 222 199 199 188 177 181 179 262 264 260 264 267 265 251 245 246 244 244 245 245 249 nan nan nan nan nan
294 294 292 298 306 301 301 300 299 300 299 297 297 297 295 294 294 292 290 286 285 285 284 281 278 277 279 281 282 283 284 281 281 286 289 287 281 278 278 282 286 289 292 289 289 291 298 299 296 292 288 285 282 275 269 264 255 243 227 212 200 189 183 177 181 145 281 281 274 269 265 257 249 255 249 248 245 247 244 nan nan nan nan nan nan
291 289 294 300 302 303 298 298 299 299 298 297 296 294 294 293 291 289 287 285 284 281 278 278 280 281 281 281 286 288 286 283 282 286 290 288 283 279 279 280 279 281 284 285 287 287 289 292 292 292 289 284 280 274 271 265 257 245 227 210 198 193 185 186 189 211 253 269 273 271 266 259 257 263 255 251 248 244 242 nan nan nan nan nan nan
290 293 295 297 299 301 300 297 298 299 297 294 291 290 289 289 288 288 286 284 282 279 278 280 282 283 286 284 287 288 285 281 282 286 291 287 283 278 276 276 277 280 285 292 297 296 293 291 292 291 288 282 275 271 266 262 258 250 231 211 204 196 189 207 208 249 259 263 275 274 271 272 275 270 258 255 249 247 247 245 nan nan nan nan nan
291 293 294 294 299 298 297 300 297 296 293 290 287 287 287 286 289 288 283 283 281 279 279 281 283 283 286 286 287 286 284 280 279 284 288 286 284 280 276 275 276 279 288 293 293 292 291 292 292 295 289 279 274 271 266 264 262 254 236 222 214 200 195 209 224 224 264 273 269 271 270 263 268 268 266 263 256 248 246 244 244 nan nan nan nan
292 294 292 294 297 300 300 300 297 293 287 288 286 286 288 287 287 285 282 284 281 280 281 284 286 285 286 288 285 282 280 280 280 286 287 283 281 279 274 274 277 279 284 288 289 290 288 288 289 290 286 278 276 275 273 268 264 257 242 233 220 208 207 209 225 227 265 285 282 277 276 272 271 276 271 264 257 254 248 246 244 247 247 nan nan
291 292 294 296 299 300 299 296 291 287 286 288 286 283 284 284 283 283 281 282 279 278 279 283 288 285 285 284 281 279 279 280 280 282 281 278 276 277 276 276 277 278 281 284 289 292 288 289 288 286 282 278 274 274 271 270 265 258 250 233 228 222 215 211 235 242 249 257 271 272 273 276 270 271 273 273 265 257 253 252 250 nan nan nan nan
287 289 295 298 299 297 296 290 285 283 287 285 282 278 279 281 282 281 279 278 278 282 273 282 288 286 282 281 280 280 281 278 273 271 271 272 273 276 278 276 277 280 281 283 287 290 290 291 291 287 279 274 272 266 264 263 263 254 244 238 230 230 221 229 235 257 262 265 267 275 276 282 279 276 273 272 272 266 259 252 249 244 nan nan nan
285 291 293 296 296 294 292 284 281 284 287 288 282 281 284 283 282 280 278 283 286 281 279 282 291 288 284 281 281 281 275 270 261 259 261 266 273 277 281 279 281 283 284 286 289 289 291 293 293 289 283 276 274 270 262 261 258 254 243 231 234 228 242 258 258 266 268 268 269 272 283 284 284 281 281 276 273 270 264 257 256 252 245 nan nan
282 290 291 284 273 272 270 277 284 292 291 288 286 285 288 288 282 283 290 298 302 304 302 294 287 284 283 278 275 279 284 280 278 270 269 272 275 283 283 285 288 285 286 288 288 288 287 290 290 292 288 283 276 271 266 262 260 255 250 236 235 244 251 254 258 258 264 265 268 273 284 282 283 284 278 276 277 278 272 265 256 248 244 243 244
276 284 292 281 286 276 274 282 288 292 291 289 290 286 288 289 285 290 300 308 317 310 301 288 285 283 280 277 279 282 284 282 279 275 260 273 282 286 288 292 292 289 289 289 287 285 282 282 285 282 276 270 268 256 255 262 268 265 259 248 248 252 251 254 259 269 266 261 269 275 281 285 283 282 281 279 276 272 271 267 255 250 248 245 246
283 291 289 280 275 289 286 291 300 292 290 290 285 284 289 290 293 300 304 313 310 302 289 284 282 287 283 280 285 282 283 286 281 271 274 271 286 298 298 301 296 293 291 290 286 283 279 276 270 263 252 243 247 248 254 259 259 272 265 256 253 253 255 252 257 256 262 265 266 277 281 284 286 287 288 284 282 276 274 272 265 257 252 248 249
290 280 274 270 288 293 293 294 300 298 290 287 286 289 294 297 297 301 304 303 299 286 281 279 280 279 279 286 288 284 284 280 279 276 274 257 282 301 304 301 297 293 292 287 288 282 279 269 254 248 246 249 253 250 251 269 268 264 259 260 258 260 258 261 263 265 267 272 271 277 281 282 286 286 287 285 284 281 276 271 266 262 254 252 252
284 283 277 284 290 293 287 288 296 294 292 292 291 293 298 301 302 302 302 300 299 292 284 281 281 283 286 288 284 281 279 272 266 257 246 258 287 302 301 298 292 292 293 283 280 275 268 257 251 247 248 252 257 260 253 256 269 269 263 261 261 259 259 259 259 256 260 263 267 272 271 270 283 285 285 287 286 282 280 276 275 266 259 255 257
290 282 285 282 281 283 285 291 294 289 292 294 295 300 302 301 301 301 298 296 298 295 289 287 291 293 294 285 274 275 277 269 257 251 256 271 288 288 301 303 301 286 289 271 264 252 254 239 218 226 250 255 248 264 258 256 267 263 269 266 260 261 259 262 266 261 254 257 263 267 264 275 280 282 284 284 282 283 282 281 278 275 272 267 262
284 281 279 275 275 283 289 287 286 287 293 294 295 299 300 300 298 298 299 299 296 290 286 291 295 294 293 289 280 281 276 277 269 258 265 281 285 283 283 276 278 277 273 275 267 271 269 258 250 221 221 217 218 228 240 233 244 262 259 261 261 265 268 266 264 262 258 258 261 267 267 275 281 282 284 284 285 283 284 282 279 278 279 278 270
280 276 273 276 282 284 286 289 292 290 290 290 293 296 298 298 296 296 298 293 289 284 284 287 295 296 294 291 285 281 275 273 271 273 290 290 283 284 285 288 281 278 280 273 275 270 258 259 278 259 223 216 200 224 238 240 232 235 258 256 261 264 257 261 257 261 259 260 263 268 271 268 279 283 283 283 283 284 284 283 282 280 282 279 275
279 276 278 280 281 285 292 294 295 296 290 291 292 294 294 295 296 298 295 295 280 287 288 278 287 292 286 285 285 287 286 286 282 294 306 301 285 289 295 294 289 284 293 279 276 278 268 277 286 258 234 230 229 209 225 237 254 231 252 257 262 262 274 266 254 262 259 262 266 272 276 273 268 284 283 285 284 284 283 281 280 280 282 283 283
282 281 279 278 280 284 291 295 296 293 291 294 293 294 296 297 300 301 285 283 278 283 286 282 287 288 284 281 283 290 291 284 295 305 311 303 301 299 289 291 284 287 284 287 285 290 297 292 293 280 261 249 235 231 216 241 nan 257 235 249 248 257 258 251 237 234 264 268 272 275 281 274 271 272 284 288 286 285 282 280 280 278 274 284 283
285 283 281 279 278 284 291 295 297 294 294 296 295 294 295 296 296 286 282 283 279 278 282 286 289 285 285 286 288 291 286 290 306 313 312 312 307 299 300 302 295 284 293 295 296 301 294 277 275 268 261 246 214 216 223 252 nan 258 257 262 258 258 263 259 258 257 261 280 277 271 272 274 274 273 269 272 283 284 283 280 279 278 272 277 283
288 286 280 273 285 295 292 295 296 294 294 295 293 292 290 290 292 291 288 282 282 281 286 291 293 292 296 299 301 297 296 312 318 315 303 302 309 303 296 298 299 314 309 294 296 294 283 269 259 257 256 253 217 213 217 255 260 263 266 281 284 257 269 267 275 276 279 270 272 267 271 273 280 279 273 267 265 271 279 280 279 274 275 269 276
282 282 277 281 289 294 297 298 300 297 298 297 296 292 289 297 294 295 290 287 286 284 287 291 293 298 304 306 300 308 310 315 308 298 298 303 294 288 289 292 303 299 286 281 279 280 274 272 263 238 240 243 228 229 232 241 228 219 nan 273 267 269 268 278 293 280 271 263 269 278 279 283 281 276 275 272 264 259 262 270 271 273 277 277 271
285 282 276 281 285 287 293 298 294 299 305 301 295 293 292 290 287 285 289 295 293 291 288 286 290 299 307 308 311 319 311 308 302 303 307 297 290 287 300 298 287 283 274 279 281 276 278 280 271 259 247 247 244 246 239 219 223 233 197 216 240 261 285 288 269 267 268 272 268 271 276 283 279 274 274 273 268 261 260 266 265 265 264 269 276
281 285 283 284 286 295 297 299 301 305 303 297 293 284 282 288 290 284 285 288 287 285 284 285 293 292 297 304 304 302 302 304 294 295 293 291 301 304 303 287 289 295 301 295 297 285 274 267 262 263 253 257 262 244 233 226 202 236 230 212 243 273 282 279 273 274 274 271 271 273 271 263 266 273 276 274 270 269 265 269 272 270 273 271 267
283 282 279 281 293 294 301 300 294 291 293 292 283 281 280 281 280 283 282 281 277 275 281 290 293 295 293 298 302 308 310 304 297 295 287 292 293 288 281 284 292 289 299 305 282 281 273 254 255 261 241 238 258 252 253 252 215 241 237 227 222 246 270 276 280 283 280 278 273 270 266 265 267 266 265 270 283 285 281 275 272 276 275 273 273
273 282 284 286 289 296 294 294 289 288 288 283 283 277 278 278 278 276 275 269 267 274 278 281 284 288 293 297 313 309 299 290 292 287 281 282 282 277 278 285 292 293 307 307 298 259 243 282 279 266 237 263 265 257 258 248 229 241 237 240 233 226 233 278 282 283 289 281 275 272 273 272 271 271 271 276 282 292 285 281 278 271 266 266 262
275 281 281 285 288 287 286 285 278 286 286 288 280 272 271 273 272 268 265 265 265 268 278 283 279 279 288 296 302 292 289 288 284 275 278 281 281 276 278 283 285 297 301 307 305 290 253 236 258 251 248 265 270 262 262 247 243 249 243 252 257 261 257 256 252 286 290 281 282 279 275 275 275 277 280 282 273 265 271 267 269 273 269 264 257
274 278 284 281 275 274 275 276 275 278 282 281 275 267 268 268 264 262 262 257 255 270 276 276 282 279 274 269 280 280 279 283 278 272 273 273 279 272 286 291 291 298 311 307 313 307 288 272 262 276 270 257 256 253 259 245 241 253 255 243 243 238 258 298 309 296 283 281 284 279 277 275 275 271 271 269 265 265 265 269 271 271 274 273 262
276 279 285 278 273 269 271 270 271 272 272 272 275 276 273 269 263 261 261 256 263 266 271 265 279 286 276 275 265 261 274 276 275 277 277 284 274 279 282 294 301 306 301 310 305 303 297 277 269 265 266 259 261 258 255 263 249 250 259 273 276 228 260 273 270 268 263 274 271 274 280 270 262 272 280 278 275 279 275 265 262 272 279 276 269
281 288 286 276 270 272 271 273 269 272 277 276 276 270 269 265 260 259 258 259 267 266 252 259 262 256 267 272 270 271 268 270 276 279 279 276 273 280 287 296 296 297 304 315 309 297 292 287 275 258 268 272 266 259 259 256 259 250 262 284 290 284 274 262 269 280 277 283 286 283 291 284 287 285 280 280 283 284 281 277 278 284 277 277 281
286 288 284 275 270 269 274 271 268 267 272 271 266 259 263 264 263 262 263 267 268 268 265 260 256 257 249 252 253 256 264 261 263 268 270 277 280 288 292 292 301 301 309 325 321 295 299 295 283 277 271 274 265 265 275 264 249 262 256 272 286 286 274 282 290 286 289 289 293 292 266 263 291 306 303 290 283 289 291 290 296 289 288 287 287
285 284 272 267 274 277 270 266 263 263 260 253 255 256 254 261 256 258 261 264 257 256 264 267 272 265 255 257 255 255 255 258 267 268 269 280 290 290 299 299 300 306 314 312 305 292 288 286 286 283 288 279 269 264 262 256 273 270 267 278 281 284 284 278 275 275 278 285 290 296 303 296 294 292 289 288 289 298 302 316 315 310 300 298 290
282 277 268 275 279 272 267 265 262 260 258 252 246 234 250 253 251 246 243 247 251 249 256 256 256 262 261 262 260 263 271 273 274 271 268 272 281 294 284 284 297 298 308 305 289 290 286 286 286 281 284 279 271 264 268 260 262 275 264 272 270 272 282 284 279 271 276 277 286 291 288 298 299 291 281 282 295 305 307 309 318 320 310 295 288
279 276 272 268 266 269 265 262 261 258 256 250 247 239 238 244 245 245 245 250 251 255 255 251 247 246 254 260 263 268 271 271 278 283 288 297 300 293 304 315 309 308 318 320 308 301 292 288 285 283 281 276 275 265 269 278 273 265 272 277 267 268 271 278 281 272 273 276 283 288 287 287 283 276 279 291 297 307 311 318 301 285 284 290 280
268 269 262 260 260 253 252 259 259 261 257 256 254 252 246 244 242 242 243 245 254 255 259 256 253 261 263 261 272 266 257 258 264 267 277 284 294 309 321 320 316 318 325 325 320 305 305 301 293 284 282 274 270 268 264 265 272 270 265 260 268 276 286 291 280 271 269 277 284 286 292 297 299 295 286 293 306 308 301 nan 286 280 279 nan nan
258 255 257 259 256 248 242 254 262 262 261 263 260 259 260 244 233 235 240 247 258 258 258 263 264 258 261 263 258 262 263 248 249 252 253 266 275 285 296 311 310 317 321 321 312 304 313 312 302 294 285 280 277 276 278 272 263 269 277 252 264 270 281 283 276 282 275 266 273 281 285 293 298 296 299 304 309 nan nan nan nan nan nan nan nan
254 252 261 272 273 268 250 259 267 268 264 268 262 254 256 237 230 241 244 249 256 261 266 261 258 260 260 267 272 265 261 247 247 255 259 265 275 282 288 280 300 304 309 308 302 310 306 298 294 295 287 289 292 283 286 284 294 280 272 267 261 269 267 261 273 281 282 283 274 260 288 300 302 306 311 306 nan nan nan nan nan nan nan nan nan
264 272 277 284 289 282 267 258 253 251 251 255 257 252 244 225 239 255 246 244 255 255 257 258 256 260 264 273 281 273 255 249 245 246 255 265 272 277 283 289 291 294 288 278 287 290 295 301 300 292 288 285 283 288 293 299 294 278 280 281 290 271 266 266 269 275 281 283 nan nan nan nan nan nan nan nan nan nan nan nan nan nan nan nan nan
263 265 266 272 278 277 267 250 242 242 245 246 246 248 244 233 240 272 260 253 253 252 254 255 258 265 271 266 256 256 254 248 260 268 277 278 283 291 282 279 272 268 272 275 274 280 289 298 296 297 295 290 285 284 283 286 282 288 288 288 276 275 270 270 268 269 273 275 285 nan nan nan nan nan nan nan nan nan nan nan nan nan nan nan nan
242 245 260 263 272 281 262 242 239 242 242 248 245 239 246 245 279 299 279 263 256 254 253 258 265 265 266 263 263 268 275 275 272 269 269 272 274 286 296 288 278 277 283 285 287 287 286 290 295 298 297 292 286 279 281 271 272 272 275 274 276 274 277 279 289 283 283 288 287 nan nan nan nan nan nan nan nan nan nan nan nan nan nan nan nan